English version Home page |
Updated on November 14, 2024 |
|
軌道要素Epoch 2024 Mar. 31.0 TT = JDT 2460400.5 T 2023 Mar. 29.71125 TT Rudenko q 3.6239162 (2000.0) P Q z -0.0002659 Peri. 181.47134 -0.99908591 +0.00733112 +/-0.0000004 Node 2.63242 -0.02336941 +0.73126301 e 1.0009635 Incl. 113.51489 -0.03579412 -0.68205621 >From 4785 observations 2019 Oct. 11-2024 Feb. 25, mean residual 0".4.
|
星図
|
光度変化m1 = 2.5 + 5 logΔ + 12.0 log r
|
軌道要素はM.P.E.C. 2024-D126に掲載されたものです。
|